| time (UTC) | temp F | wind direction | speed MPH | gust MPH | rain 1hr in | rain 24hr in | rain mn in | humidity % | barometer mb |
| 20260502213053 | 53 | 7 | 2.0 | 2.0 | 0.00 | 0.00 | 0.00 | 45 | 1008.3 |
| 20260502212552 | 54 | 309 | 1.0 | 1.0 | 0.00 | 0.00 | 0.00 | 43 | 1008.1 |
| 20260502212049 | 53 | 351 | 1.0 | 2.0 | 0.00 | 0.00 | 0.00 | 43 | 1008.0 |
| 20260502211545 | 53 | 333 | 1.0 | 1.0 | 0.00 | 0.00 | 0.00 | 44 | 1008.2 |
| 20260502211042 | 53 | 316 | 1.0 | 2.0 | 0.00 | 0.00 | 0.00 | 43 | 1008.2 |
| 20260502210539 | 53 | 359 | 2.0 | 2.0 | 0.00 | 0.00 | 0.00 | 44 | 1008.3 |
| 20260502210036 | 52 | 12 | 2.0 | 2.0 | 0.00 | 0.00 | 0.00 | 44 | 1008.1 |
| 20260502205533 | 53 | 328 | 2.0 | 2.0 | 0.00 | 0.00 | 0.00 | 44 | 1008.0 |
| 20260502205030 | 53 | 330 | 3.0 | 4.0 | 0.00 | 0.00 | 0.00 | 45 | 1008.0 |
| 20260502204526 | 53 | 341 | 0.0 | 1.0 | 0.00 | 0.00 | 0.00 | 45 | 1008.1 |
| 20260502204024 | 53 | 335 | 3.0 | 4.0 | 0.00 | 0.00 | 0.00 | 45 | 1008.0 |
| 20260502203520 | 53 | 337 | 3.0 | 3.0 | 0.00 | 0.00 | 0.00 | 46 | 1008.0 |
| 20260502203017 | 53 | 357 | 0.0 | 1.0 | 0.00 | 0.00 | 0.00 | 45 | 1008.1 |
| 20260502202513 | 53 | 354 | 2.0 | 3.0 | 0.00 | 0.00 | 0.00 | 45 | 1008.1 |
| 20260502202012 | 53 | 351 | 0.0 | 0.0 | 0.00 | 0.00 | 0.00 | 50 | 1008.1 |
| 20260502201508 | 52 | 348 | 1.0 | 1.0 | 0.00 | 0.00 | 0.00 | 46 | 1008.3 |
| 20260502201004 | 53 | 350 | 1.0 | 1.0 | 0.00 | 0.00 | 0.00 | 45 | 1008.2 |
| 20260502200500 | 52 | 341 | 2.0 | 2.0 | 0.00 | 0.00 | 0.00 | 46 | 1008.0 |
| 20260502195958 | 53 | 333 | 3.0 | 3.0 | 0.00 | 0.00 | 0.00 | 44 | 1008.0 |
| 20260502195456 | 53 | 343 | 0.0 | 1.0 | 0.00 | 0.00 | 0.00 | 47 | 1008.1 |
| 20260502194951 | 53 | 280 | 4.0 | 4.0 | 0.00 | 0.00 | 0.00 | 44 | 1008.1 |
| 20260502194448 | 53 | 341 | 2.0 | 2.0 | 0.00 | 0.00 | 0.00 | 45 | 1008.2 |
| 20260502193944 | 53 | 353 | 0.0 | 0.0 | 0.00 | 0.00 | 0.00 | 47 | 1008.6 |
| 20260502193442 | 53 | 310 | 2.0 | 3.0 | 0.00 | 0.00 | 0.00 | 48 | 1008.3 |
| 20260502192937 | 53 | 17 | 3.0 | 4.0 | 0.00 | 0.00 | 0.00 | 45 | 1008.5 |
| 20260502192434 | 53 | 303 | 1.0 | 2.0 | 0.00 | 0.00 | 0.00 | 47 | 1008.5 |
| 20260502191931 | 53 | 328 | 3.0 | 3.0 | 0.00 | 0.00 | 0.00 | 46 | 1008.6 |
| 20260502191430 | 53 | 309 | 5.0 | 7.0 | 0.00 | 0.00 | 0.00 | 48 | 1008.6 |
| 20260502190927 | 54 | 322 | 1.0 | 2.0 | 0.00 | 0.00 | 0.00 | 43 | 1008.7 |
| 20260502190424 | 54 | 331 | 3.0 | 3.0 | 0.00 | 0.00 | 0.00 | 45 | 1009.0 |
| 20260502185920 | 55 | 352 | 1.0 | 2.0 | 0.00 | 0.00 | 0.00 | 43 | 1009.0 |
| 20260502185415 | 54 | 344 | 1.0 | 2.0 | 0.00 | 0.00 | 0.00 | 45 | 1009.1 |
| 20260502184912 | 55 | 348 | 2.0 | 3.0 | 0.00 | 0.00 | 0.00 | 44 | 1009.1 |
| 20260502184408 | 54 | 350 | 3.0 | 3.0 | 0.00 | 0.00 | 0.00 | 43 | 1009.4 |
| 20260502183904 | 55 | 6 | 1.0 | 2.0 | 0.00 | 0.00 | 0.00 | 46 | 1009.2 |
| 20260502183400 | 55 | 300 | 1.0 | 1.0 | 0.00 | 0.00 | 0.00 | 50 | 1009.2 |
| 20260502182856 | 54 | 295 | 4.0 | 4.0 | 0.00 | 0.00 | 0.00 | 44 | 1009.4 |
| 20260502182352 | 53 | 266 | 1.0 | 1.0 | 0.00 | 0.00 | 0.00 | 46 | 1009.3 |
| 20260502181848 | 53 | 134 | 3.0 | 3.0 | 0.00 | 0.00 | 0.00 | 44 | 1009.3 |
| 20260502181347 | 53 | 330 | 2.0 | 2.0 | 0.00 | 0.00 | 0.00 | 50 | 1009.3 |
| 20260502180845 | 53 | 306 | 1.0 | 1.0 | 0.00 | 0.00 | 0.00 | 48 | 1009.4 |
| 20260502180341 | 53 | 16 | 2.0 | 3.0 | 0.00 | 0.00 | 0.00 | 50 | 1009.6 |
| 20260502170300 | 52 | 22 | 1.0 | 1.0 | 0.00 | 0.00 | 0.00 | 51 | 1009.6 |
| 20260502164248 | 51 | 359 | 0.0 | 1.0 | 0.00 | 0.00 | 0.00 | 56 | 1010.0 |
| 20260502163743 | 51 | 345 | 2.0 | 2.0 | 0.00 | 0.00 | 0.00 | 54 | 1010.0 |
| 20260502163240 | 52 | 334 | 3.0 | 3.0 | 0.00 | 0.00 | 0.00 | 53 | 1009.8 |
| 20260502162737 | 52 | 75 | 2.0 | 2.0 | 0.00 | 0.00 | 0.00 | 49 | 1009.9 |
| 20260502162234 | 52 | 340 | 3.0 | 3.0 | 0.00 | 0.00 | 0.00 | 50 | 1010.0 |
| 20260502161731 | 51 | 10 | 1.0 | 1.0 | 0.00 | 0.00 | 0.00 | 57 | 1010.2 |
| 20260502161227 | 50 | 2 | 3.0 | 3.0 | 0.00 | 0.00 | 0.00 | 49 | 1010.2 |
| 20260502160726 | 50 | 335 | 4.0 | 4.0 | 0.00 | 0.00 | 0.00 | 54 | 1010.3 |
| 20260502160225 | 51 | 261 | 2.0 | 2.0 | 0.00 | 0.00 | 0.00 | 52 | 1010.3 |
| 20260502152148 | 50 | 272 | 2.0 | 3.0 | 0.00 | 0.00 | 0.00 | 53 | 1010.5 |
| 20260502151646 | 51 | 9 | 0.0 | 0.0 | 0.00 | 0.00 | 0.00 | 54 | 1010.8 |
| 20260502151143 | 50 | 351 | 1.0 | 1.0 | 0.00 | 0.00 | 0.00 | 56 | 1010.5 |
| 20260502150640 | 49 | 333 | 0.0 | 0.0 | 0.00 | 0.00 | 0.00 | 59 | 1010.5 |
| 20260502150137 | 48 | 293 | 2.0 | 3.0 | 0.00 | 0.00 | 0.00 | 60 | 1010.6 |
| 20260502130525 | 45 | 356 | 1.0 | 2.0 | 0.00 | 0.00 | 0.00 | 68 | 1010.8 |
| 20260502123509 | 44 | 105 | 3.0 | 4.0 | 0.00 | 0.00 | 0.00 | 71 | 1010.9 |
| 20260502123005 | 44 | 21 | 2.0 | 2.0 | 0.00 | 0.00 | 0.00 | 72 | 1010.8 |
| 20260502122501 | 44 | 328 | 1.0 | 1.0 | 0.00 | 0.00 | 0.00 | 72 | 1010.5 |
| 20260502121959 | 44 | 10 | 1.0 | 1.0 | 0.00 | 0.00 | 0.00 | 73 | 1010.4 |
| 20260502121456 | 44 | 340 | 1.0 | 1.0 | 0.00 | 0.00 | 0.00 | 72 | 1010.8 |
| 20260502120954 | 43 | 5 | 0.0 | 0.0 | 0.00 | 0.00 | 0.00 | 74 | 1010.5 |
| 20260502120450 | 43 | 27 | 0.0 | 0.0 | 0.00 | 0.00 | 0.00 | 75 | 1010.8 |
| 20260502115444 | 42 | 35 | 2.0 | 4.0 | 0.00 | 0.00 | 0.00 | 73 | 1010.5 |
| 20260502114940 | 42 | 15 | 1.0 | 2.0 | 0.00 | 0.00 | 0.00 | 75 | 1010.8 |
| 20260502114437 | 42 | 33 | 1.0 | 2.0 | 0.00 | 0.00 | 0.00 | 75 | 1010.9 |
| 20260502113934 | 42 | 12 | 0.0 | 0.0 | 0.00 | 0.00 | 0.00 | 75 | 1010.8 |
| 20260502113432 | 42 | 2 | 0.0 | 0.0 | 0.00 | 0.00 | 0.00 | 75 | 1010.9 |
| 20260502112931 | 42 | 356 | 0.0 | 0.0 | 0.00 | 0.00 | 0.00 | 78 | 1010.8 |
| 20260502112427 | 42 | 6 | 0.0 | 0.0 | 0.00 | 0.00 | 0.00 | 78 | 1010.6 |
| 20260502111925 | 42 | 353 | 0.0 | 1.0 | 0.00 | 0.00 | 0.00 | 77 | 1010.8 |
| 20260502111422 | 42 | 349 | 0.0 | 1.0 | 0.00 | 0.00 | 0.00 | 76 | 1010.9 |
| 20260502110919 | 41 | 188 | 3.0 | 3.0 | 0.00 | 0.00 | 0.00 | 76 | 1010.9 |
| 20260502110417 | 41 | 356 | 0.0 | 0.0 | 0.00 | 0.00 | 0.00 | 77 | 1010.8 |
| 20260502105914 | 41 | 21 | 0.0 | 1.0 | 0.00 | 0.00 | 0.00 | 77 | 1010.8 |
| 20260502105411 | 41 | 351 | 1.0 | 1.0 | 0.00 | 0.00 | 0.00 | 78 | 1010.6 |
| 20260502104909 | 41 | 341 | 1.0 | 2.0 | 0.00 | 0.00 | 0.00 | 78 | 1010.9 |
| 20260502104406 | 41 | 18 | 1.0 | 2.0 | 0.00 | 0.00 | 0.00 | 78 | 1010.6 |
| 20260502103903 | 41 | 353 | 0.0 | 0.0 | 0.00 | 0.00 | 0.00 | 77 | 1010.5 |
| 20260502103401 | 42 | 288 | 2.0 | 2.0 | 0.00 | 0.00 | 0.00 | 75 | 1010.6 |
| 20260502102857 | 41 | 41 | 1.0 | 2.0 | 0.00 | 0.00 | 0.00 | 76 | 1011.0 |
| 20260502102354 | 41 | 355 | 1.0 | 1.0 | 0.00 | 0.00 | 0.00 | 77 | 1010.8 |
| 20260502101852 | 41 | 331 | 1.0 | 2.0 | 0.00 | 0.00 | 0.00 | 79 | 1010.4 |
| 20260502101350 | 41 | 354 | 0.0 | 0.0 | 0.00 | 0.00 | 0.00 | 77 | 1010.6 |
| 20260502100848 | 41 | 14 | 0.0 | 1.0 | 0.00 | 0.00 | 0.00 | 77 | 1010.5 |
| 20260502100347 | 41 | 7 | 2.0 | 2.0 | 0.00 | 0.00 | 0.00 | 78 | 1010.5 |
| 20260502091320 | 42 | 355 | 0.0 | 0.0 | 0.00 | 0.00 | 0.00 | 75 | 1010.5 |
| 20260502090818 | 42 | 354 | 0.0 | 1.0 | 0.00 | 0.00 | 0.00 | 75 | 1010.2 |
| 20260502090315 | 42 | 13 | 2.0 | 3.0 | 0.00 | 0.00 | 0.00 | 75 | 1010.6 |
| 20260502071210 | 44 | 1 | 2.0 | 2.0 | 0.00 | 0.00 | 0.00 | 76 | 1009.8 |
| 20260502070708 | 44 | 3 | 2.0 | 2.0 | 0.00 | 0.00 | 0.00 | 78 | 1009.8 |
| 20260502070206 | 44 | 355 | 1.0 | 1.0 | 0.00 | 0.00 | 0.00 | 77 | 1010.0 |
| 20260502065704 | 45 | 357 | 1.0 | 1.0 | 0.00 | 0.00 | 0.00 | 75 | 1009.8 |
| 20260502065201 | 45 | 338 | 1.0 | 2.0 | 0.00 | 0.00 | 0.00 | 75 | 1009.8 |
| 20260502064700 | 45 | 331 | 1.0 | 1.0 | 0.00 | 0.00 | 0.00 | 75 | 1009.5 |
| 20260502064156 | 45 | 325 | 1.0 | 2.0 | 0.00 | 0.00 | 0.00 | 75 | 1009.8 |
| 20260502063654 | 45 | 5 | 2.0 | 2.0 | 0.00 | 0.00 | 0.00 | 73 | 1009.7 |
| 20260502063152 | 45 | 339 | 3.0 | 4.0 | 0.00 | 0.00 | 0.00 | 74 | 1009.6 |
| 20260502062649 | 45 | 345 | 2.0 | 2.0 | 0.00 | 0.00 | 0.00 | 74 | 1009.4 |
| 20260502062146 | 46 | 253 | 2.0 | 6.0 | 0.00 | 0.00 | 0.00 | 73 | 1009.5 |
| 20260502061644 | 46 | 2 | 0.0 | 1.0 | 0.00 | 0.00 | 0.00 | 74 | 1009.5 |
| 20260502061142 | 46 | 302 | 1.0 | 2.0 | 0.00 | 0.00 | 0.00 | 73 | 1009.5 |
| 20260502060642 | 46 | 302 | 2.0 | 3.0 | 0.00 | 0.00 | 0.00 | 73 | 1009.6 |
| 20260502060139 | 46 | 337 | 3.0 | 4.0 | 0.00 | 0.00 | 0.00 | 72 | 1009.8 |
| 20260502055637 | 46 | 352 | 5.0 | 7.0 | 0.00 | 0.00 | 0.00 | 73 | 1009.8 |
| 20260502055134 | 46 | 347 | 2.0 | 2.0 | 0.00 | 0.00 | 0.00 | 74 | 1009.8 |
| 20260502054633 | 46 | 316 | 6.0 | 8.0 | 0.00 | 0.00 | 0.00 | 74 | 1009.8 |
| 20260502054130 | 47 | 3 | 0.0 | 1.0 | 0.00 | 0.00 | 0.00 | 74 | 1009.9 |
| 20260502053627 | 47 | 10 | 3.0 | 4.0 | 0.00 | 0.00 | 0.00 | 74 | 1009.7 |
| 20260502053125 | 47 | 331 | 1.0 | 1.0 | 0.00 | 0.00 | 0.00 | 74 | 1009.6 |
| 20260502052623 | 47 | 311 | 2.0 | 2.0 | 0.00 | 0.00 | 0.00 | 75 | 1009.6 |
| 20260502052121 | 47 | 332 | 2.0 | 3.0 | 0.00 | 0.00 | 0.00 | 75 | 1009.5 |
| 20260502051619 | 47 | 353 | 1.0 | 1.0 | 0.00 | 0.00 | 0.00 | 75 | 1009.4 |
| 20260502051117 | 47 | 333 | 2.0 | 2.0 | 0.00 | 0.00 | 0.00 | 75 | 1009.7 |
| 20260502050612 | 47 | 298 | 2.0 | 2.0 | 0.00 | 0.00 | 0.00 | 75 | 1009.4 |
| 20260502050109 | 48 | 328 | 2.0 | 2.0 | 0.00 | 0.00 | 0.00 | 75 | 1009.5 |
| 20260502045606 | 48 | 317 | 4.0 | 7.0 | 0.00 | 0.00 | 0.00 | 75 | 1009.3 |
| 20260502045103 | 48 | 310 | 2.0 | 3.0 | 0.00 | 0.00 | 0.00 | 75 | 1009.4 |
| 20260502044559 | 48 | 319 | 4.0 | 4.0 | 0.00 | 0.00 | 0.00 | 75 | 1009.5 |
| 20260502044056 | 48 | 313 | 3.0 | 3.0 | 0.00 | 0.00 | 0.00 | 76 | 1009.4 |
| 20260502043554 | 49 | 297 | 2.0 | 2.0 | 0.00 | 0.00 | 0.00 | 76 | 1009.4 |
| 20260502043050 | 49 | 333 | 1.0 | 2.0 | 0.00 | 0.00 | 0.00 | 75 | 1009.3 |
| 20260502042545 | 50 | 346 | 3.0 | 3.0 | 0.00 | 0.00 | 0.00 | 74 | 1009.4 |
| 20260502042043 | 50 | 267 | 2.0 | 2.0 | 0.00 | 0.00 | 0.00 | 73 | 1009.8 |
| 20260502041540 | 50 | 18 | 1.0 | 1.0 | 0.00 | 0.00 | 0.00 | 73 | 1009.5 |
| 20260502041037 | 50 | 308 | 4.0 | 6.0 | 0.00 | 0.00 | 0.00 | 71 | 1009.5 |
| 20260502040533 | 50 | 317 | 1.0 | 3.0 | 0.00 | 0.00 | 0.00 | 72 | 1009.5 |
| 20260502040031 | 50 | 359 | 2.0 | 2.0 | 0.00 | 0.00 | 0.00 | 71 | 1009.1 |
| 20260502035526 | 50 | 356 | 3.0 | 3.0 | 0.00 | 0.00 | 0.00 | 70 | 1009.0 |
| 20260502035024 | 50 | 358 | 1.0 | 1.0 | 0.00 | 0.00 | 0.00 | 70 | 1009.0 |
| 20260502034522 | 51 | 319 | 3.0 | 3.0 | 0.00 | 0.00 | 0.00 | 70 | 1009.1 |
| 20260502034021 | 51 | 303 | 2.0 | 2.0 | 0.00 | 0.00 | 0.00 | 69 | 1009.0 |
| 20260502033518 | 51 | 212 | 2.0 | 3.0 | 0.00 | 0.00 | 0.00 | 70 | 1009.3 |
| 20260502033015 | 51 | 339 | 0.0 | 1.0 | 0.00 | 0.00 | 0.00 | 69 | 1009.1 |
| 20260502032511 | 51 | 335 | 1.0 | 2.0 | 0.00 | 0.00 | 0.00 | 70 | 1009.0 |
| 20260502032008 | 51 | 301 | 2.0 | 2.0 | 0.00 | 0.00 | 0.00 | 69 | 1009.0 |
| 20260502031506 | 51 | 4 | 0.0 | 0.0 | 0.00 | 0.00 | 0.00 | 68 | 1009.0 |
| 20260502031004 | 51 | 5 | 0.0 | 0.0 | 0.00 | 0.00 | 0.00 | 68 | 1008.6 |
| 20260502030502 | 51 | 345 | 2.0 | 3.0 | 0.00 | 0.00 | 0.00 | 69 | 1008.5 |
| 20260502030000 | 51 | 342 | 2.0 | 3.0 | 0.00 | 0.00 | 0.00 | 68 | 1008.6 |
| 20260502025456 | 51 | 292 | 3.0 | 3.0 | 0.00 | 0.00 | 0.00 | 68 | 1008.6 |
| 20260502024954 | 51 | 330 | 2.0 | 2.0 | 0.00 | 0.00 | 0.00 | 69 | 1008.8 |
| 20260502024452 | 51 | 329 | 4.0 | 4.0 | 0.00 | 0.00 | 0.00 | 67 | 1009.0 |
| 20260502023950 | 51 | 254 | 3.0 | 3.0 | 0.00 | 0.00 | 0.00 | 67 | 1008.9 |
| 20260502023447 | 51 | 331 | 1.0 | 1.0 | 0.00 | 0.00 | 0.00 | 68 | 1009.0 |
| 20260502022945 | 51 | 253 | 3.0 | 4.0 | 0.00 | 0.00 | 0.00 | 69 | 1008.5 |
| 20260502022441 | 52 | 338 | 2.0 | 3.0 | 0.00 | 0.00 | 0.00 | 71 | 1008.6 |
| 20260502021938 | 52 | 22 | 3.0 | 3.0 | 0.00 | 0.00 | 0.00 | 70 | 1008.7 |
| 20260502021436 | 52 | 336 | 2.0 | 2.0 | 0.00 | 0.00 | 0.00 | 70 | 1008.8 |
| 20260502020932 | 52 | 333 | 3.0 | 4.0 | 0.00 | 0.00 | 0.00 | 69 | 1008.6 |
| 20260502020431 | 52 | 337 | 1.0 | 1.0 | 0.00 | 0.00 | 0.00 | 71 | 1009.2 |
| 20260502015926 | 52 | 305 | 2.0 | 3.0 | 0.00 | 0.00 | 0.00 | 70 | 1008.9 |
| 20260502015424 | 52 | 5 | 1.0 | 1.0 | 0.00 | 0.00 | 0.00 | 70 | 1008.9 |
| 20260502014915 | 52 | 335 | 1.0 | 1.0 | 0.00 | 0.00 | 0.00 | 70 | 1008.9 |
| 20260502014413 | 53 | 358 | 3.0 | 4.0 | 0.00 | 0.00 | 0.00 | 70 | 1008.4 |
| 20260502013909 | 53 | 346 | 0.0 | 0.0 | 0.00 | 0.00 | 0.00 | 68 | 1008.8 |
| 20260502013404 | 53 | 21 | 2.0 | 2.0 | 0.00 | 0.00 | 0.00 | 66 | 1008.9 |
| 20260502012901 | 53 | 3 | 1.0 | 1.0 | 0.00 | 0.00 | 0.00 | 67 | 1008.6 |
| 20260502012359 | 53 | 322 | 4.0 | 4.0 | 0.00 | 0.00 | 0.00 | 65 | 1008.6 |
| 20260502011856 | 54 | 335 | 1.0 | 2.0 | 0.00 | 0.00 | 0.00 | 65 | 1008.3 |
| 20260502011352 | 54 | 350 | 4.0 | 4.0 | 0.00 | 0.00 | 0.00 | 64 | 1008.1 |
| 20260502010849 | 54 | 41 | 3.0 | 4.0 | 0.00 | 0.00 | 0.00 | 62 | 1008.0 |
| 20260502010346 | 54 | 337 | 2.0 | 3.0 | 0.00 | 0.00 | 0.00 | 60 | 1007.6 |
| 20260502005843 | 54 | 353 | 2.0 | 2.0 | 0.00 | 0.00 | 0.00 | 61 | 1007.8 |
| 20260502005341 | 55 | 340 | 1.0 | 2.0 | 0.00 | 0.00 | 0.00 | 61 | 1007.5 |
| 20260502004838 | 55 | 308 | 3.0 | 3.0 | 0.00 | 0.00 | 0.00 | 60 | 1007.3 |
| 20260502004333 | 55 | 330 | 1.0 | 1.0 | 0.00 | 0.00 | 0.00 | 60 | 1007.3 |
| 20260502003832 | 56 | 329 | 1.0 | 1.0 | 0.00 | 0.00 | 0.00 | 60 | 1006.8 |
| 20260502003328 | 56 | 318 | 2.0 | 3.0 | 0.00 | 0.00 | 0.00 | 60 | 1006.6 |
| 20260502002825 | 56 | 358 | 1.0 | 2.0 | 0.00 | 0.00 | 0.00 | 65 | 1006.8 |
| 20260502002322 | 55 | 345 | 2.0 | 2.0 | 0.00 | 0.00 | 0.00 | 66 | 1006.6 |
| 20260502001819 | 55 | 357 | 0.0 | 0.0 | 0.00 | 0.00 | 0.00 | 66 | 1006.6 |
| 20260502001317 | 54 | 359 | 1.0 | 2.0 | 0.00 | 0.00 | 0.00 | 71 | 1006.2 |
| 20260502000815 | 53 | 332 | 2.0 | 2.0 | 0.00 | 0.00 | 0.00 | 84 | 1006.2 |
| 20260502000312 | 53 | 348 | 0.0 | 0.0 | 0.00 | 0.00 | 0.00 | 84 | 1005.9 |
| 20260501235807 | 54 | 273 | 2.0 | 2.0 | 0.00 | 0.00 | 0.00 | 83 | 1005.5 |
| 20260501235305 | 54 | 341 | 0.0 | 0.0 | 0.00 | 0.00 | 0.00 | 82 | 1006.0 |
| 20260501234759 | 54 | 7 | 0.0 | 0.0 | 0.00 | 0.00 | 0.00 | 79 | 1005.9 |
| 20260501234256 | 54 | 3 | 0.0 | 0.0 | 0.00 | 0.00 | 0.00 | 82 | 1005.7 |
| 20260501233755 | 54 | 4 | 0.0 | 0.0 | 0.00 | 0.00 | 0.00 | 84 | 1005.4 |
| 20260501233252 | 54 | 358 | 0.0 | 0.0 | 0.00 | 0.00 | 0.00 | 83 | 1005.2 |
| 20260501232748 | 55 | 356 | 0.0 | 0.0 | 0.00 | 0.00 | 0.00 | 82 | 1005.5 |
| 20260501232245 | 55 | 359 | 0.0 | 0.0 | 0.00 | 0.00 | 0.00 | 78 | 1005.3 |
| 20260501231743 | 55 | 9 | 0.0 | 0.0 | 0.00 | 0.00 | 0.00 | 83 | 1005.3 |
| 20260501231241 | 55 | 2 | 0.0 | 1.0 | 0.00 | 0.00 | 0.00 | 80 | 1005.6 |
| 20260501230739 | 55 | 14 | 0.0 | 0.0 | 0.00 | 0.00 | 0.00 | 81 | 1005.6 |
| 20260501230237 | 55 | 346 | 0.0 | 0.0 | 0.00 | 0.00 | 0.00 | 80 | 1005.5 |
| 20260501225735 | 55 | 29 | 1.0 | 1.0 | 0.00 | 0.00 | 0.00 | 82 | 1005.5 |
| 20260501225232 | 56 | 13 | 1.0 | 1.0 | 0.00 | 0.00 | 0.00 | 79 | 1005.5 |
| 20260501224728 | 56 | 11 | 1.0 | 1.0 | 0.00 | 0.00 | 0.00 | 66 | 1005.6 |
| 20260501224226 | 56 | 340 | 0.0 | 1.0 | 0.00 | 0.00 | 0.00 | 71 | 1006.1 |
| 20260501223721 | 57 | 352 | 0.0 | 1.0 | 0.00 | 0.00 | 0.00 | 64 | 1005.9 |
| 20260501223218 | 59 | 357 | 2.0 | 2.0 | 0.00 | 0.00 | 0.00 | 57 | 1005.8 |
| 20260501222714 | 59 | 355 | 2.0 | 3.0 | 0.00 | 0.00 | 0.00 | 52 | 1005.8 |
| 20260501222211 | 60 | 356 | 0.0 | 0.0 | 0.00 | 0.00 | 0.00 | 64 | 1005.3 |
| 20260501221707 | 61 | 357 | 0.0 | 0.0 | 0.00 | 0.00 | 0.00 | 55 | 1005.2 |
| 20260501221205 | 61 | 357 | 0.0 | 0.0 | 0.00 | 0.00 | 0.00 | 49 | 1005.3 |
| 20260501220703 | 61 | 4 | 0.0 | 0.0 | 0.00 | 0.00 | 0.00 | 50 | 1005.1 |
| 20260501220200 | 61 | 5 | 0.0 | 0.0 | 0.00 | 0.00 | 0.00 | 48 | 1005.1 |
| 20260501215657 | 62 | 354 | 1.0 | 1.0 | 0.00 | 0.00 | 0.00 | 45 | 1005.4 |
| 20260501215152 | 62 | 358 | 0.0 | 0.0 | 0.00 | 0.00 | 0.00 | 47 | 1005.3 |
| 20260501214647 | 62 | 353 | 0.0 | 0.0 | 0.00 | 0.00 | 0.00 | 47 | 1005.2 |
| 20260501214143 | 62 | 342 | 1.0 | 1.0 | 0.00 | 0.00 | 0.00 | 44 | 1005.3 |
| 20260501213640 | 63 | 313 | 2.0 | 2.0 | 0.00 | 0.00 | 0.00 | 43 | 1005.3 |